Location: Newark
(54.8972°N, 99.8189°W)
Time: 23:27:05
(UTC+00:00)

Explorer 7 - All Passes

Search period start: 15 November 2019 00:00
Search period end: 25 November 2019 00:00
Orbit: 485 x 680 km, 50.3° (Epoch: 14 November)

Date Brightness Start Highest point End Pass type
(mag) Time Alt. Az. Time Alt. Az. Time Alt. Az.
15 Nov - 08:32:27 10° SSW 08:35:52 22° SSE 08:39:08 10° E night (unlit)
15 Nov - 10:11:44 10° WSW 10:15:48 41° S 10:19:39 10° E visible
15 Nov - 11:52:00 10° W 11:55:55 40° S 11:59:37 10° ESE visible
15 Nov - 13:32:50 10° WSW 13:35:43 19° SSW 13:38:31 10° SSE daylight
16 Nov - 08:36:51 10° SW 08:40:38 28° SSE 08:44:14 10° E night (unlit)
16 Nov - 10:16:33 10° WSW 10:20:40 44° S 10:24:33 10° ESE visible
16 Nov - 11:56:55 10° W 12:00:44 35° SSW 12:04:21 10° SE visible
16 Nov - 13:38:12 10° WSW 13:40:24 14° SW 13:42:34 10° S daylight
17 Nov - 07:03:17 10° S 07:05:41 14° SE 07:08:02 10° ESE night (unlit)
17 Nov - 08:41:25 10° SW 08:45:26 34° SSE 08:49:14 10° E night (unlit)
17 Nov - 10:21:24 10° WSW 10:25:32 45° S 10:29:25 10° ESE visible
17 Nov - 12:01:55 10° W 12:05:33 29° SSW 12:09:00 10° SE visible
17 Nov - 13:44:42 10° SW 13:45:02 10° SW 13:45:22 10° SW daylight
18 Nov - 07:07:10 10° SSW 07:10:23 19° SSE 07:13:29 10° ESE night (unlit)
18 Nov - 08:46:07 10° SW 08:50:16 39° SSE 08:54:11 10° E night (unlit)
18 Nov - 10:26:17 10° WSW 10:30:24 43° S 10:34:15 10° ESE visible
18 Nov - 12:06:57 10° W 12:10:18 24° SSW 12:13:30 10° SSE visible
19 Nov - 07:11:25 10° SSW 07:15:07 25° SSE 07:18:40 10° E night (unlit)
19 Nov - 08:50:53 10° WSW 08:55:07 43° S 08:59:06 10° E night (unlit)
19 Nov - 10:31:12 10° W 10:35:14 39° SSW 10:39:02 10° ESE visible
19 Nov - 12:12:08 10° WSW 12:15:01 18° SSW 12:17:47 10° SSE visible
20 Nov - 05:38:33 10° SSE 05:40:15 12° SE 05:41:54 10° ESE night (unlit)
20 Nov - 07:15:53 10° SW 07:19:54 31° SSE 07:23:43 10° E night (unlit)
20 Nov - 08:55:42 10° WSW 08:59:58 46° S 09:03:59 10° ESE night (unlit)
20 Nov - 10:36:09 10° W 10:40:04 34° SSW 10:43:45 10° SE visible
20 Nov - 12:17:36 10° WSW 12:19:40 14° SW 12:21:42 10° S visible
21 Nov - 05:41:59 10° S 05:44:53 16° SE 05:47:43 10° ESE night (unlit)
21 Nov - 07:20:29 10° SW 07:24:42 36° SSE 07:28:41 10° E night (unlit)
21 Nov - 09:00:34 10° WSW 09:04:50 46° S 09:08:51 10° ESE night (unlit)
21 Nov - 10:41:08 10° W 10:44:50 28° SSW 10:48:21 10° SE visible
22 Nov - 05:46:02 10° SSW 05:49:36 22° SSE 05:53:01 10° E night (unlit)
22 Nov - 07:25:12 10° WSW 07:29:32 42° SSE 07:33:38 10° E night (unlit)
22 Nov - 09:05:27 10° W 09:09:42 43° S 09:13:40 10° ESE night (unlit)
22 Nov - 10:46:12 10° W 10:49:35 23° SSW 10:52:48 10° SSE visible
23 Nov - 05:50:22 10° SSW 05:54:20 27° SSE 05:58:08 10° E night (unlit)
23 Nov - 07:30:00 10° WSW 07:34:23 46° S 07:38:31 10° ESE night (unlit)
23 Nov - 09:10:22 10° W 09:14:32 39° SSW 09:18:26 10° SE night (unlit)
23 Nov - 10:51:25 10° WSW 10:54:16 17° SW 10:57:01 10° S visible
24 Nov - 04:17:01 10° S 04:19:24 14° SE 04:21:46 10° ESE night (unlit)
24 Nov - 05:54:54 10° SW 05:59:07 33° SSE 06:03:09 10° E night (unlit)
24 Nov - 07:34:49 10° WSW 07:39:15 47° S 07:43:24 10° ESE night (unlit)
24 Nov - 09:15:19 10° W 09:19:20 33° SSW 09:23:07 10° SE night (unlit)
24 Nov - 10:56:59 10° WSW 10:58:55 13° SW 11:00:47 10° SSW visible
